"Pseudo-MPEC" for P10InA0

Created 2018 Jul 13 23:18:23 UT using Find_Orb

Click here for an explanation of pseudo-MPECs

 
 Astrometry: 
     P10InA0  C2018 06 158qAstrometryYNeBTSHJLK`.Cuf+ZC5`IIrAG+3e;xP8S]`W01=TF51
     P10InA0  C2018 06 155mutcUqx@HhaIsNA^i?h'LLA)6STai!6cdFZ=T?*;h#C/bg(*nUVF51
     P10InA0  C2018 06 1568FCm^\!O@u4]7iA^DD\-`I5kqD!a7H^*C@XLtxG/[8R7Yj[WLBrF51
     P10InA0  C2018 06 15u1=G0r.Gtm+wjKUScchU;Y4+nE26qa!h.1a=X[0=XTCgpCt3,h!uF51
     P10InA0  C2018 06 17V`iUrYMZ[;hl_%8Ivp#?8sb2,HOtI$P0n`('3(_/+DhwndmK*_EFF51
     P10InA0  C2018 06 17r+I!Zr%d\MJ?U7[q@tZ%?gAI8%/7K'wt\1Gau)5D78oW2*\+,^rMF51
     P10InA0  C2018 06 17.eR=VXx-,Z-u:kd:mredacted;.Q+XcrbE#H^PPF;(=K:oY!Owb$F51
     P10InA0  C2018 06 17kSi_!Qk`/TXKS\tk2J7',T,!IeVR=W.LnMQ_g;mFfF\:8H))K85aF51
     P10InA0  C2018 07 11U\nr%ZL%(SVAAKhA85W,'YKdbvQ`82287G?OLLKmx9hj(yvcXGNtF51
     P10InA0  C2018 07 11wPLSnfkZy^qF#gO):Ql:?\B?X,wZZLWdR13Vmq:?=q,m!GRlaKN^F51
     P10InA0  C2018 07 11jajBA$nRBF=UdtI\4BS`NaOHmuc$G/ek+`Iy8lyVG=*JSrl-Xua?F51
     P10InA0  C2018 07 11$c2yM+#N:B@E(ixu5wQ]n5aH-./f)p_-ZL`aWd5K`UJiyHd4yoKGF51
     P10InA0 |C2018 07 12*3o7u$W$Oqe/CKJTi_%Po)sn+]\*,b+6seeu!'JY9N.0mq-uab[@807
     P10InA0 |C2018 07 12lPIexTZ8.BCxqx%AXrI@(li5gPwJiRs.PM0e?-cYausn$nP@:t/'807
     P10InA0 |C2018 07 12J,*OO6H]gPmRoe92'rNWM!%+o/K/)[kTAO)K?+.,[V8+A,qIXE+G807
     P10InA0 KC2018 07 12_6pnZxQ%,L.iwMt,40Lo]2f,kffPgKA]@7qrhv$n^ml2gRFQnLFQ474
     P10InA0 KC2018 07 12_g8PSX@^!W$8)PYTOGAPhsvtAH@raad7:Cr4'sF_2O5l.CAjV2i,474
     P10InA0 KC2018 07 12,0/']ph!b)DZq%-=dsFSfUva5@XlSGR_2afoXUpt8oT/t;M95MlU474
     P10InA0 KC2018 07 12(CpcNdvV.XvWjQ'dCPrSK3ZH-dWj-NbqgRvC`TtqDKS.I)ZNEOCP474

Station data:
(474) Mount John Observatory, Lake Tekapo  (S43.987388 E170.464960)  New
   Zealand.  Observers A. C. Gilmore, P. M. Kilmartin. Measurer P. M.
   Kilmartin. 1.0-m f/7.7 reflector + CCD.
(807) Cerro Tololo Observatory, La Serena  (S30.169136 W70.805900)  Chile.
   1.5-m Ritchey-Chrétien.
(F51) Pan-STARRS 1, Haleakala  (N20.707235 W156.255910)  US/Hawaii.
   Observers N. Primak, A. Schultz, S. Watters, J. Thiel, T. Goggia. Measurer
   PS1 Science Consortium. 1.8-m Ritchey-Chrétien + CCD.

Orbital elements:  P10InA0
   Perihelion 2018 Mar 8.995627 +/- 0.103 TT = 23:53:42 (JD 2458186.495627)
Epoch 2018 Jul 12.0 TT = JDT 2458311.5   Earth MOID: 0.3529   Ma: 0.0179
M  34.02296 +/- 0.08                (J2000 ecliptic)          AutoNEOCP
n   0.27217418 +/- 0.000475         Peri.  154.61192 +/- 0.027
a   2.35814999 +/- 0.00274          Node    71.24394 +/- 0.013
e   0.4241424 +/- 0.000731          Incl.    7.02839 +/- 0.0024
P   3.62                   H 19.4   G  0.15   U  7.6  
q 1.35795854 +/- 0.000238    Q 3.35834144 +/- 0.0056
From 19 observations 2018 June 15-July 12; mean residual 0".09
Residuals in arcseconds: 
180615 F51  .00   .02+    180617 F51  .00   .06+    180712 807  .02-  .03-    
180615 F51  .13-  .00     180711 F51  .03+  .00     180712 474  .25+  .14+    
180615 F51  .06+  .06+    180711 F51  .10-  .15+    180712 474  .02+  .15-    
180615 F51  .05+  .06+    180711 F51  .06+  .02+    180712 474  .07-  .14-    
180617 F51  .02-  .05+    180711 F51  .09+  .05+    180712 474  .03-  .02-    
180617 F51  .03-  .24-    180712 807  .13-  .02-    
180617 F51  .08+  .03-    180712 807  .07-  .03+    

Ephemerides (geocentric):
Date (UTC) HH   RA              Dec         delta   r     elong  mag " sig PA
---- -- -- --  -------------   -----------  ------ ------ -----  --- ---- ---
2018 07 13 23  21 42 01.642   -26 37 37.31  .81960 1.7743 150.0 21.1  .24  81
2018 07 14 00  21 41 59.492   -26 38 02.53  .81964 1.7745 150.0 21.1  .25  81
2018 07 14 01  21 41 57.337   -26 38 27.74  .81967 1.7747 150.1 21.1  .25  81
2018 07 14 02  21 41 55.179   -26 38 52.95  .81971 1.7749 150.1 21.1  .26  81
2018 07 14 03  21 41 53.017   -26 39 18.15  .81975 1.7752 150.2 21.1  .27  81
2018 07 14 04  21 41 50.851   -26 39 43.34  .81979 1.7754 150.2 21.1  .27  81
2018 07 14 05  21 41 48.682   -26 40 08.53  .81983 1.7756 150.3 21.1  .28  81
2018 07 14 06  21 41 46.508   -26 40 33.70  .81987 1.7758 150.3 21.1  .28  81
2018 07 14 07  21 41 44.331   -26 40 58.88  .81991 1.7760 150.3 21.1  .29  81
2018 07 14 08  21 41 42.150   -26 41 24.04  .81995 1.7762 150.4 21.1  .29  81
2018 07 14 09  21 41 39.965   -26 41 49.20  .81999 1.7764 150.4 21.1  .30  81
2018 07 14 10  21 41 37.776   -26 42 14.35  .82003 1.7767 150.5 21.1  .31  81
2018 07 14 11  21 41 35.583   -26 42 39.50  .82007 1.7769 150.5 21.1  .31  81
2018 07 14 12  21 41 33.387   -26 43 04.63  .82011 1.7771 150.6 21.1  .32  81
2018 07 14 13  21 41 31.187   -26 43 29.76  .82015 1.7773 150.6 21.1  .32  81
2018 07 14 14  21 41 28.983   -26 43 54.88  .82019 1.7775 150.7 21.1  .33  81
2018 07 14 15  21 41 26.775   -26 44 20.00  .82024 1.7777 150.7 21.1  .34  81
2018 07 14 16  21 41 24.563   -26 44 45.11  .82028 1.7779 150.7 21.1  .34  81
2018 07 14 17  21 41 22.348   -26 45 10.21  .82032 1.7782 150.8 21.1  .35  81
2018 07 14 18  21 41 20.129   -26 45 35.30  .82037 1.7784 150.8 21.1  .35  81
2018 07 14 19  21 41 17.907   -26 46 00.38  .82041 1.7786 150.9 21.1  .36  81
2018 07 14 20  21 41 15.680   -26 46 25.46  .82045 1.7788 150.9 21.1  .37  81
2018 07 14 21  21 41 13.450   -26 46 50.53  .82050 1.7790 151.0 21.1  .37  81
2018 07 14 22  21 41 11.216   -26 47 15.59  .82054 1.7792 151.0 21.1  .38  81
2018 07 14 23  21 41 08.978   -26 47 40.64  .82059 1.7794 151.0 21.1  .39  81
2018 07 15 00  21 41 06.737   -26 48 05.68  .82063 1.7797 151.1 21.1  .39  81
2018 07 15 01  21 41 04.492   -26 48 30.72  .82068 1.7799 151.1 21.1  .40  81
2018 07 15 02  21 41 02.243   -26 48 55.75  .82072 1.7801 151.2 21.1  .40  81
2018 07 15 03  21 40 59.991   -26 49 20.77  .82077 1.7803 151.2 21.1  .41  81
2018 07 15 04  21 40 57.735   -26 49 45.78  .82081 1.7805 151.3 21.1  .42  81
2018 07 15 05  21 40 55.475   -26 50 10.78  .82086 1.7807 151.3 21.1  .42  81
2018 07 15 06  21 40 53.212   -26 50 35.78  .82091 1.7809 151.4 21.1  .43  81
2018 07 15 07  21 40 50.945   -26 51 00.77  .82095 1.7811 151.4 21.1  .43  81
2018 07 15 08  21 40 48.674   -26 51 25.74  .82100 1.7814 151.4 21.1  .44  81
2018 07 15 09  21 40 46.400   -26 51 50.71  .82105 1.7816 151.5 21.1  .45  81
2018 07 15 10  21 40 44.122   -26 52 15.67  .82110 1.7818 151.5 21.1  .45  81
2018 07 15 11  21 40 41.840   -26 52 40.62  .82115 1.7820 151.6 21.1  .46  81
2018 07 15 12  21 40 39.555   -26 53 05.57  .82119 1.7822 151.6 21.1  .47  81
2018 07 15 13  21 40 37.266   -26 53 30.50  .82124 1.7824 151.7 21.1  .47  81
2018 07 15 14  21 40 34.974   -26 53 55.42  .82129 1.7826 151.7 21.1  .48  81
2018 07 15 15  21 40 32.678   -26 54 20.34  .82134 1.7829 151.7 21.1  .48  81
2018 07 15 16  21 40 30.378   -26 54 45.24  .82139 1.7831 151.8 21.1  .49  81
2018 07 15 17  21 40 28.075   -26 55 10.14  .82144 1.7833 151.8 21.1  .50  81
2018 07 15 18  21 40 25.768   -26 55 35.03  .82149 1.7835 151.9 21.1  .50  81
2018 07 15 19  21 40 23.458   -26 55 59.91  .82154 1.7837 151.9 21.1  .51  81
2018 07 15 20  21 40 21.144   -26 56 24.78  .82160 1.7839 152.0 21.1  .52  81
2018 07 15 21  21 40 18.827   -26 56 49.64  .82165 1.7841 152.0 21.1  .52  81
2018 07 15 22  21 40 16.506   -26 57 14.48  .82170 1.7844 152.0 21.1  .53  81